Dodge City Regional Airport
KDDC : now visible

Airfield :











YOU CAN JOIN US ON...

 
LOGIN :

Register | Disclaimer

   EN    FR    IT 

 









Legend :    VFR   Marginal VFR   IFR   Intensive IFR   Very Intensive IFR
Visi :
Ceiling :
>= 8 km
>= 3000ft
5 to 8 km
1000 to 3000 ft
1500m to 5 km
500 to 1000 ft
800 to 1500m
200 to 500 ft
< 800m
< 200 ft
Symbols :   Thunderstorms  Fog  Heavy snow  Heavy precipitations  Wind > 20 kt






- Airport Elevation : 2594 ft
- IATA code : DDC


KDDC - Dodge City Regional

CURRENT METAR :
  • 021752Z AUTO 00000KT 6SM HZ CLR 27/12 A3022 RMK AO2 SLP210 T02720117 10278 20139 58011

EXPIRED METARs :
  • 021652Z AUTO 5SM HZ CLR 26/12 A3024 RMK AO2 SLP216 T02560122
  • 021552Z AUTO 00000KT 5SM HZ CLR 24/13 A3025 RMK AO2 SLP219 T02390128

TAF KDDC
Valid from the 02 at 18:00 until the 03 at 18:00 UTC


021732Z 0218/0318 06005KT 6SM FU FEW250
KZKC FIR / North America



MET'MAP, your aeronautical weather chart ! - Copyright ORBIFLY December 2007 - Disclaimer

ORBIFLY MET'MAP TEAM :

Programming & Development : Alexandra Zaïnal
Concept & original design : Baudouin d'Aumeries
Assistance for programming : Marc-Olivier Méhu
Technical & hardware support : Manuel Goepfert

Contact : metmap@orbifly.com




SOURCES & CREDITS :

   NOAA       Earth
Advisory